Theta_e
308 308 307 306 305 305 305 305 305 306 306 307 307 307 308 309 309 310 310 310 311 311 311 311 310 310 310 310 309 310 309 309 310 309 308 307 307 308 307 306 306 306 306
308 308 308 307 307 306 306 305 304 305 306 306 306 306 305 307 308 308 308 308 308 309 309 310 310 309 309 308 308 308 307 309 308 308 306 307 307 307 308 308 308 309 308
310 309 308 308 308 307 308 307 306 306 306 306 306 305 305 306 307 308 308 307 307 308 307 308 308 308 306 305 306 308 308 308 309 309 308 308 308 308 308 309 309 309 309
309 308 309 308 307 308 308 307 306 305 306 307 306 304 305 306 307 307 307 307 307 308 308 308 307 307 307 309 309 308 308 310 310 309 309 308 308 308 308 309 310 310 308
309 309 309 307 309 310 310 308 308 308 308 307 308 306 304 306 307 306 307 308 307 308 308 308 308 307 306 306 307 308 308 307 306 307 306 306 306 307 308 308 310 309 308
308 309 307 308 309 311 311 311 308 308 308 308 309 308 307 307 306 306 306 307 308 308 308 308 309 308 307 307 307 307 309 309 309 309 308 307 307 309 309 310 310 310 310
308 307 308 310 312 311 310 309 308 308 309 308 307 308 308 307 308 308 308 308 308 308 309 309 308 309 308 308 309 309 309 309 310 310 310 310 310 311 311 311 311 311 309
307 310 310 312 312 311 308 308 309 309 308 308 310 310 310 309 308 307 308 308 309 309 309 309 309 309 309 310 311 311 311 311 311 311 311 311 311 312 311 311 311 311 310
309 310 310 311 311 310 308 308 308 308 308 309 310 310 310 310 309 307 307 307 308 308 309 309 310 310 310 310 310 310 310 311 311 311 311 311 311 311 309 310 310 311 309
310 310 308 307 309 311 311 311 310 309 308 309 310 309 309 309 309 310 309 308 309 309 310 310 310 310 310 310 309 309 308 309 310 310 310 309 309 309 310 309 311 310 307
310 310 309 309 308 303 310 311 310 309 309 308 309 309 309 309 308 308 310 308 309 308 308 309 309 309 308 308 309 308 308 307 308 309 309 309 308 307 307 307 305 305 304
310 309 309 310 312 311 302 308 309 309 309 309 308 307 308 309 309 309 309 309 308 308 309 309 309 309 309 309 308 308 307 308 307 307 307 307 306 306 305 304 303 303 305
309 310 311 311 311 312 310 304 303 305 307 308 308 308 306 307 307 308 309 308 308 309 309 309 308 308 308 308 307 306 306 306 306 306 305 304 304 304 302 301 301 304 304
311 311 310 309 311 312 312 312 307 304 300 298 300 301 302 301 303 306 307 308 308 308 308 308 308 307 307 306 306 305 304 305 304 304 302 303 302 302 301 301 300 300 301
311 310 310 310 312 311 311 311 312 309 303 304 301 298 299 301 302 304 306 306 308 308 307 307 306 306 305 305 305 305 303 303 303 303 301 301 301 301 301 300 300 299 299
311 311 311 310 311 312 311 310 309 310 306 302 305 301 302 304 304 304 304 305 306 305 305 305 305 305 304 303 303 303 303 302 302 303 302 301 301 300 300 300 299 299 299
311 311 310 310 313 312 310 310 308 308 307 304 302 305 303 302 304 304 304 304 304 303 303 304 304 303 302 302 302 302 301 301 301 301 301 300 300 300 300 299 299 299 298
311 312 310 312 312 310 310 309 308 308 307 306 304 302 306 305 303 303 301 302 302 303 303 302 302 302 302 301 301 301 300 299 298 301 301 300 300 299 299 299 299 298 298
311 312 311 312 311 310 309 309 308 308 308 307 306 304 306 306 304 303 301 300 300 301 301 302 301 301 300 300 300 298 296 295 296 300 300 300 299 299 299 299 298 298 297
311 311 311 311 311 311 309 308 308 307 306 306 306 304 304 305 305 304 303 300 299 299 300 300 300 300 299 297 296 295 294 295 297 300 300 300 299 298 298 299 298 297 297
311 310 310 311 311 310 309 308 307 306 306 305 304 304 304 305 305 305 304 301 299 299 299 298 298 298 297 295 294 294 294 295 298 299 299 299 298 297 298 298 297 297 296
311 310 310 310 312 311 309 308 308 308 306 305 304 303 303 304 304 305 305 304 300 299 299 298 298 297 297 295 294 294 294 294 296 298 298 298 297 297 297 297 297 296 296
312 311 310 310 311 312 312 310 308 307 307 306 304 303 303 303 303 304 305 304 303 299 298 298 298 297 297 296 295 294 293 293 295 296 297 297 297 296 296 297 296 296 296
312 310 310 310 311 312 312 313 312 309 307 306 306 305 304 303 302 303 304 304 304 302 299 298 298 297 297 296 295 294 293 293 294 296 297 297 297 295 295 295 296 296 295
312 311 309 311 311 311 311 312 312 312 310 307 306 305 305 304 304 302 303 304 304 303 301 298 298 297 296 296 295 294 294 293 293 295 297 297 296 295 296 295 295 296 295
312 312 311 312 311 311 311 312 312 312 311 311 309 306 305 305 305 305 302 302 302 302 302 298 297 297 296 296 295 294 293 293 293 293 295 296 296 295 295 295 294 295 295
Wind_Speed
17 19 20 17 15 14 13 10 9 8 6 8 9 8 6 6 9 10 12 13 12 10 9 7 7 6 4 3 2 2 3 4 5 6 7 9 10 7 6 4 3 3 6
19 17 16 19 18 15 14 12 9 9 8 8 8 8 6 3 5 4 7 9 11 9 5 4 3 3 4 4 2 2 4 3 5 6 6 5 6 6 6 5 5 6 8
16 16 16 14 17 18 16 13 9 9 9 9 7 9 8 5 4 2 3 4 5 4 3 3 3 4 4 2 2 3 6 5 5 4 3 4 5 6 7 7 8 8 8
16 16 15 17 17 19 19 16 11 9 10 10 8 8 6 6 4 3 2 3 5 6 6 6 7 6 6 6 6 6 5 5 4 4 4 4 5 5 7 9 7 9 6
13 13 14 14 17 20 19 17 17 15 13 14 10 8 7 5 3 4 4 5 5 7 9 10 12 12 10 9 8 5 5 6 6 5 5 5 5 7 9 11 12 9 7
13 13 13 13 15 17 17 16 13 14 14 14 16 15 11 10 8 5 3 4 8 9 11 13 12 12 12 12 11 10 8 5 5 5 5 6 7 9 11 12 13 11 9
12 13 12 14 17 15 14 13 11 14 15 18 19 20 20 17 15 13 11 10 11 12 11 11 10 9 7 6 6 6 6 6 7 8 8 8 11 14 17 16 13 12 10
9 12 13 15 17 15 16 13 12 13 15 18 17 16 17 17 16 14 13 13 12 11 10 10 9 8 8 7 7 8 8 8 8 10 10 9 13 15 16 16 14 12 13
7 8 10 12 11 12 13 15 14 13 13 11 13 13 14 14 13 12 12 11 11 11 10 10 9 9 9 10 7 8 7 8 8 7 7 7 12 13 7 10 12 16 14
7 8 8 10 9 9 10 6 8 10 10 9 10 10 12 14 15 13 11 9 8 7 7 8 8 7 9 9 7 10 10 10 10 5 5 5 8 11 8 9 12 12 12
5 6 7 11 12 12 6 4 5 5 6 6 6 6 6 7 7 8 10 9 9 8 6 7 6 5 5 7 7 8 11 12 9 9 9 9 10 10 8 7 6 9 12
2 3 6 10 13 15 13 5 5 4 5 4 3 4 3 3 4 5 7 7 9 8 8 3 7 6 5 4 6 12 13 6 4 7 11 11 7 4 5 9 13 15 10
2 3 7 8 12 13 11 11 8 7 8 6 5 5 4 4 4 4 2 3 8 4 4 6 6 5 4 7 10 8 6 6 8 12 10 7 5 4 7 9 10 7 2
2 3 4 7 12 15 15 8 9 11 10 4 5 6 5 5 5 6 5 5 4 2 3 4 4 5 7 8 6 8 8 7 8 11 8 6 5 5 7 8 10 11 5
1 4 5 7 11 15 18 7 7 8 10 8 8 3 2 3 3 2 3 3 4 4 6 5 6 7 8 9 7 8 10 9 8 8 8 7 6 6 8 7 10 15 11
2 6 9 7 12 16 14 7 5 7 7 8 6 6 3 4 6 4 2 2 3 5 7 8 5 6 9 10 8 9 10 11 8 6 9 9 7 7 7 6 11 17 10
5 8 8 9 14 14 9 6 4 4 4 5 5 2 2 2 3 3 4 5 8 8 11 8 5 7 10 12 10 11 12 12 11 8 8 9 7 8 7 7 10 16 11
8 9 11 11 14 11 9 6 4 4 4 3 6 6 5 4 5 7 8 9 11 10 9 7 7 8 10 12 13 14 14 13 9 7 7 9 9 7 7 6 9 15 13
6 8 9 11 15 10 7 6 5 6 6 5 5 6 4 4 5 8 8 7 7 8 6 6 7 9 12 14 14 14 12 10 7 6 6 8 7 6 8 5 7 13 11
9 9 9 13 15 12 10 10 6 7 9 5 5 4 3 4 6 7 8 7 6 6 7 8 10 13 14 13 11 10 10 9 6 5 5 7 9 8 8 4 6 11 11
11 11 10 12 13 12 8 6 5 6 11 6 5 6 6 6 7 8 9 8 7 7 7 8 10 11 11 10 9 9 9 7 5 5 5 8 9 7 7 4 6 11 10
14 13 11 11 12 11 8 10 11 9 9 8 7 8 10 9 7 7 8 9 7 7 7 8 9 10 9 9 9 9 8 7 6 6 5 7 9 8 6 5 6 9 9
16 15 11 10 11 8 9 10 14 12 11 10 9 9 9 10 9 8 7 8 9 8 7 8 9 11 10 11 10 10 9 8 6 6 6 7 10 8 6 5 6 8 10
18 18 14 11 10 14 14 12 9 12 12 13 11 11 10 10 10 10 9 9 10 10 9 8 9 10 12 12 12 11 10 9 8 7 7 7 10 7 6 7 7 6 9
19 18 17 14 11 11 11 8 9 10 9 15 15 14 13 11 12 11 11 12 11 11 11 10 9 11 12 13 12 12 11 10 9 8 7 7 8 9 5 7 7 5 7
18 18 18 16 15 12 14 16 12 12 13 10 14 19 16 13 11 12 10 12 13 12 11 11 11 11 11 13 13 12 11 11 10 10 9 8 9 9 6 6 7 5 6
Wind_Direction
15 14 18 18 20 22 18 23 17 25 14 22 35 39 49 68 64 59 70 70 80 93 87 92 98 82 63 44 14 342 330 332 327 335 347 6 15 25 30 29 30 319 311
12 14 20 24 28 24 24 25 25 14 13 16 20 17 12 74 82 67 71 79 78 80 73 64 53 47 -0 345 351 2 352 15 57 22 22 15 22 24 17 14 355 341 324
12 12 12 14 22 27 22 25 30 36 31 28 29 19 30 87 98 88 64 58 37 34 24 345 327 326 335 -0 35 85 95 47 32 28 27 11 350 345 344 341 338 334 322
12 14 31 33 32 37 33 35 40 35 27 23 18 30 55 77 81 82 81 41 34 31 28 48 58 66 76 67 88 116 68 32 29 34 20 7 357 353 341 345 356 344 338
13 27 32 43 43 40 37 51 49 46 45 38 41 47 65 74 90 76 88 78 63 61 69 75 74 69 65 64 67 73 59 46 43 38 27 11 1 359 357 347 350 355 14
37 51 56 39 28 28 30 48 43 39 52 54 58 63 70 74 75 85 92 100 91 88 84 80 75 72 76 76 72 70 63 54 31 15 2 350 345 348 351 351 346 340 340
52 57 40 28 27 28 34 45 54 60 65 70 69 70 70 71 76 79 82 100 105 99 92 88 88 80 74 69 54 37 27 14 8 356 345 337 337 334 329 330 332 328 322
53 44 40 37 37 42 41 52 62 74 77 83 67 67 65 66 69 75 83 93 96 87 81 76 70 68 58 42 30 24 25 10 356 355 338 333 333 336 326 321 325 328 328
61 59 31 39 69 49 49 58 63 68 75 72 67 64 63 60 65 70 74 78 77 73 69 63 59 50 38 31 24 22 20 347 332 332 10 326 319 321 307 323 330 322 326
81 52 39 34 35 28 35 38 50 56 56 64 70 73 68 59 59 62 62 66 68 58 47 36 21 27 8 18 13 14 8 2 10 39 25 38 352 350 344 325 315 317 324
78 48 33 18 27 24 24 17 30 35 49 58 64 64 62 61 45 25 34 48 47 34 1 7 357 343 338 347 342 349 351 344 328 328 330 327 327 336 335 346 352 332 327
100 57 36 23 16 17 19 345 339 345 348 340 21 17 15 5 15 358 14 30 9 3 20 330 11 20 14 355 343 343 344 336 337 330 329 337 339 335 348 346 339 333 329
70 5 355 11 10 11 8 13 1 326 303 300 298 307 309 300 304 321 309 351 345 57 28 15 22 23 8 343 346 345 347 345 338 340 351 7 22 10 3 5 1 5 38
295 346 35 11 351 359 357 335 344 3 8 350 311 301 306 298 274 265 266 285 309 18 17 1 343 347 352 356 348 357 356 351 352 356 2 0 5 352 350 355 358 1 319
274 337 344 329 349 359 4 345 316 327 5 26 25 7 25 47 6 289 238 264 272 292 313 314 320 331 343 353 343 343 353 348 346 340 347 345 348 347 354 348 354 0 352
284 332 340 333 343 352 351 341 329 308 317 8 23 35 80 53 40 54 34 347 278 290 297 305 318 331 342 351 342 342 345 355 350 324 334 339 344 350 356 344 355 2 4
298 322 333 324 348 342 331 326 324 319 316 314 334 334 9 283 312 329 314 305 301 291 292 294 295 318 337 346 338 331 333 336 334 322 318 335 335 345 353 345 354 2 5
292 313 317 328 345 324 307 307 310 326 311 296 328 300 275 295 304 321 307 282 285 278 284 295 305 321 330 332 330 324 323 323 310 301 299 325 330 335 349 343 353 3 3
291 312 320 329 333 302 308 300 315 329 316 284 304 328 279 286 304 322 328 316 292 269 274 291 312 324 326 324 323 327 331 332 320 297 297 323 332 323 342 334 350 2 5
284 307 312 330 334 314 295 303 295 317 325 279 275 316 315 324 330 340 344 324 311 293 278 295 310 318 323 325 325 329 332 331 317 295 298 324 332 323 337 327 342 354 3
278 293 299 328 346 327 285 274 285 299 334 287 271 286 294 290 307 331 348 340 317 311 314 318 323 324 330 333 333 332 331 329 322 313 316 326 340 328 337 323 342 349 356
273 289 288 323 317 340 301 274 282 295 308 312 282 287 278 284 300 315 339 346 328 322 335 338 338 337 337 338 337 334 330 319 314 320 327 335 340 336 335 309 328 350 348
267 276 282 296 306 311 329 318 282 286 274 301 292 291 300 291 288 305 311 335 343 329 327 335 339 343 342 342 340 335 330 321 302 306 323 340 347 341 340 323 324 352 350
263 268 271 270 304 264 312 291 317 286 269 277 290 291 309 319 301 289 287 305 328 338 324 318 329 335 337 338 338 335 332 326 311 304 320 325 342 342 341 339 319 342 3
258 266 262 263 274 279 278 307 275 295 292 263 270 281 299 316 328 307 284 290 299 316 324 309 311 325 332 338 338 335 331 325 315 306 313 308 328 338 315 340 338 313 346
257 262 257 261 256 267 268 273 305 307 278 293 281 266 275 292 315 328 310 292 298 302 322 308 303 313 324 333 336 333 328 323 316 304 297 296 306 322 301 313 344 333 323